Location: Peebles
(55.6412°N, 3.1714°W)
Time: 14:54:33
(UTC+01:00)

OBJECT-B - Pass Details

Date: 26 September 2021
Orbit: 407 x 417 km, 96.9° (Epoch: 11 October)

Event Time Altitude Azimuth Distance (km) Brightness Sun altitude
Exits shadow 19:43:26 - 129° (SE) 1,814 3.4 -6.9°
Reaches altitude 10° 19:44:19 10° 122° (ESE) 1,478 3.0 -7.0°
Maximum altitude 19:46:57 25° 65° (ENE) 883 1.9 -7.3°
Drops below altitude 10° 19:49:37 10° 8° (N) 1,488 3.5 -7.7°
Sets 19:51:49 0° 355° (N) 2,355 4.7 -8.0°
